Location: Melque
(41.0517°N, 4.4694°W)
Time: 07:34:14
(UTC+00:00)

SKYMED 2 - Pass Details

Date: 21 March 2026
Orbit: 622 x 624 km, 97.9° (Epoch: 14 April)

Event Time Altitude Azimuth Distance (km) Brightness Sun altitude
Rises 19:45:54 0° 351° (N) 2,911 7.3 -14.8°
Reaches altitude 10° 19:49:11 10° 325° (NW) 1,998 6.9 -15.4°
Maximum altitude 19:51:10 13° 297° (WNW) 1,797 7.1 -15.8°
Drops below altitude 10° 19:53:10 10° 270° (W) 1,991 7.4 -16.1°
Sets 19:56:26 0° 243° (WSW) 2,892 7.7 -16.7°
